Regional Weather Roundup
Issued by NWS

Home | Current Version | Previous Version | Graphics & Text | Print | Product List | Glossary On
Versions: 1 2 3 4 5 6 7 8 9 10 11 12 13 14 15 16 17 18 19 20 21 22 23 24 25 26 27 28 29 30 31 32 33 34 35 36 37 38 39 40 41 42 43 44 45 46 47 48 49 50
000
ASUS45 KCYS 230210
RWRWY

WYOMING REGIONAL WEATHER ROUNDUP
NATIONAL WEATHER SERVICE CHEYENNE WY
800 PM MDT MON MAY 22 2017

NOTE:  "FAIR" INDICATES FEW OR NO CLOUDS BELOW 12,000 FEET
WITH NO SIGNIFICANT WEATHER AND/OR OBSTRUCTIONS TO VISIBILITY.

WYZ001-230300-
YELLOWSTONE NATIONAL PARK

CITY           SKY/WX    TMP DP  RH WIND       PRES   REMARKS
LK YELLOWSTONE   N/A     45  34  65 VRB3      30.37R
W YELLOWSTONE  NOT AVBL

$$
WYZ002>013-054>058-071-098>099-230300-
NORTHERN WYOMING

CITY           SKY/WX    TMP DP  RH WIND       PRES   REMARKS
JACKSON        MOCLDY    55  32  41 NE9       30.27R
CODY           MOCLDY    56  35  45 NW7       30.25S
GREYBULL       FAIR      58  41  53 NW9       30.19R
WORLAND        FAIR      55  42  61 NW7       30.20S
SHERIDAN       FAIR      55  40  56 N8        30.19R
BUFFALO        FAIR      48  39  71 NW10      30.21R
GILLETTE       CLOUDY    49  41  74 N9        30.18R
HULETT         CLOUDY    46  39  76 CALM      30.18R
NEWCASTLE      FAIR      48  37  66 NW12      30.16R

$$
WYZ014>020-022>026-101>103-230300-
CENTRAL WYOMING

CITY           SKY/WX    TMP DP  RH WIND       PRES   REMARKS
BIG PINEY      MOCLDY    55  34  45 NE16      30.27R
PINEDALE       MOCLDY    52  28  40 NW18G26   30.27S
DUBOIS         CLOUDY    41  32  70 S5        30.32
LANDER         FAIR      45  36  70 W14       30.27F
RIVERTON       FAIR      47  39  74 W10       30.27S
CASPER         LGT RAIN  43  38  82 N17       30.24R
DOUGLAS        FAIR      47  37  68 N7        30.21R

$$
WYZ021-027>030-104>119-230300-
SOUTHERN WYOMING

CITY           SKY/WX    TMP DP  RH WIND       PRES   REMARKS
EVANSTON       MOCLDY    56  41  57 NW15      30.27R
KEMMERER         N/A     55  30  38 NW9       30.28R
ROCK SPRINGS   LGT RAIN  43  33  68 E17G28    30.31R
DIXON            N/A     44  33  64 E13       30.30
RAWLINS        CLOUDY    40  35  83 SE3       30.28F
LARAMIE        MOCLDY    36  33  89 NW13      30.24S WCI  27
CHEYENNE       FAIR      44  31  60 NW13      30.19R
TORRINGTON     FAIR      50  33  52 N13G22    30.15R
PINE BLUFFS    CLOUDY    46  34  61 N21G30    30.17R

$$



USA.gov is the U.S. government's official web portal to all federal, state and local government web resources and services.